Detroit Metro, MI

6:44 AM EDT on May 24, 2018 (GMT -0400)
Detroit Metro Wayne County

Weather History for KDTW - July, 2013

Change the Weather History Date:

Tuesday, July 9, 2013

  Actual Average Record
Temperature  
Mean Temperature 80 °F 74 °F  
Max Temperature 89 °F 84 °F 102 °F (1936)
Min Temperature 71 °F 64 °F 50 °F (1883)
Degree Days  
Heating Degree Days 0 0  
Month to date heating degree days 0 0  
Since 1 June heating degree days 23 35  
Since 1 July heating degree days 0 0  
Cooling Degree Days 15 9  
Month to date cooling degree days 84 78  
Year to date cooling degree days 357 293  
Since 1 June cooling degree days 254 245  
Growing Degree Days 30 (Base 50)    
Moisture  
Dew Point 71 °F    
Average Humidity 74    
Maximum Humidity 93    
Minimum Humidity 55    
Precipitation  
Precipitation 0.34 in 0.10 in 2.51 in (1937)
Month to date precipitation 2.50 0.92  
Year to date precipitation 23.36 16.98  
Snow  
Snow 0.00 in 0.00 in 0.00 in ()
Month to date snowfall 0.0 0.0  
Since 1 June snowfall 0.0 0.0  
Since 1 July snowfall 0.0 0.0  
Snow Depth 0.00 in    
Sea Level Pressure  
Sea Level Pressure 29.96 in    
Wind  
Wind Speed 7 mph (SW)    
Max Wind Speed 33 mph    
Max Gust Speed 41 mph    
Visibility 6 miles    
Events Rain , Thunderstorm    
T = Trace of Precipitation, MM = Missing Value Source: NWS Daily Summary

Daily Weather History Graph

Daily Weather History Graph

Search for Another Location

Airport or City:

Astronomy

Jul. 09, 2013 Rise Set
Actual Time 6:05 AM EDT 9:11 PM EDT
Civil Twilight 5:32 AM EDT 9:44 PM EDT
Nautical Twilight 4:48 AM EDT 10:28 PM EDT
Astronomical Twilight 3:56 AM EDT 11:19 PM EDT
Moon 7:31 AM EDT (7/9) 9:44 PM EDT (7/9)
Length of Visible Light 16h 12m
Length of Day
15h 05m
New Moon, 2% of the Moon is Illuminated
Jul 9
New Moon
Jul 15
First Quarter
Jul 22
Full
Jul 29
Last Quarter
Aug 6
New

Hourly Weather History & Observations

Time (EDT) Temp. Heat Index Dew Point Humidity Pressure Visibility Wind Dir Wind Speed Gust Speed Precip Events Conditions
12:40 AM 73.4 °F - 71.6 °F 94% 30.00 in 7.0 mi SSE 5.8 mph - N/A   Overcast
12:53 AM 73.0 °F - 71.1 °F 93% 29.99 in 6.0 mi South 4.6 mph - N/A   Overcast
1:53 AM 73.0 °F - 71.1 °F 93% 29.98 in 5.0 mi South 5.8 mph - N/A   Overcast
2:53 AM 72.0 °F - 70.0 °F 93% 29.97 in 6.0 mi South 3.5 mph - N/A   Overcast
3:31 AM 71.6 °F - 69.8 °F 94% 29.99 in 4.0 mi SSW 3.5 mph - N/A   Overcast
3:53 AM 72.0 °F - 70.0 °F 93% 29.98 in 4.0 mi Calm Calm - N/A   Overcast
4:30 AM 73.4 °F - 69.8 °F 88% 29.99 in 5.0 mi SSW 3.5 mph - N/A   Overcast
4:49 AM 73.4 °F - 69.8 °F 88% 29.99 in 5.0 mi SSW 5.8 mph - N/A   Overcast
4:53 AM 73.0 °F - 70.0 °F 90% 29.98 in 5.0 mi SSW 4.6 mph - N/A   Overcast
5:53 AM 73.0 °F - 71.1 °F 93% 29.98 in 3.0 mi Calm Calm - N/A   Overcast
6:07 AM 73.4 °F - 71.6 °F 94% 29.99 in 2.0 mi WSW 4.6 mph - N/A   Overcast
6:12 AM 73.4 °F - 71.6 °F 94% 29.99 in 1.5 mi WSW 3.5 mph - N/A   Overcast
6:53 AM 73.0 °F - 71.1 °F 93% 29.98 in 1.5 mi WNW 4.6 mph - N/A   Overcast
7:46 AM 73.4 °F - 71.6 °F 94% 29.99 in 1.5 mi West 4.6 mph - N/A   Overcast
7:53 AM 73.9 °F - 71.1 °F 91% 29.99 in 1.5 mi WNW 3.5 mph - N/A   Overcast
8:37 AM 75.2 °F - 71.6 °F 89% 30.00 in 3.0 mi West 3.5 mph - N/A   Overcast
8:53 AM 75.0 °F - 71.1 °F 87% 29.99 in 3.0 mi Calm Calm - N/A   Overcast
9:36 AM 75.2 °F - 71.6 °F 89% 30.00 in 3.0 mi WSW 4.6 mph - N/A   Overcast
9:53 AM 77.0 °F - 71.1 °F 82% 29.99 in 3.0 mi Variable 4.6 mph - N/A   Overcast
10:26 AM 80.6 °F 84.6 °F 71.6 °F 74% 30.00 in 3.0 mi Variable 3.5 mph - N/A   Mostly Cloudy
10:53 AM 79.0 °F - 71.1 °F 77% 29.99 in 3.0 mi Calm Calm - N/A   Mostly Cloudy
11:44 AM 82.4 °F 87.2 °F 71.6 °F 70% 29.99 in 3.0 mi WSW 8.1 mph - N/A   Mostly Cloudy
11:53 AM 82.0 °F 85.9 °F 70.0 °F 67% 29.98 in 10.0 mi SW 4.6 mph - N/A   Mostly Cloudy
12:53 PM 84.0 °F 88.4 °F 70.0 °F 63% 29.98 in 10.0 mi SW 10.4 mph - N/A   Mostly Cloudy
1:53 PM 84.9 °F 90.1 °F 71.1 °F 63% 29.96 in 10.0 mi SW 12.7 mph - N/A   Scattered Clouds
2:53 PM 87.1 °F 92.8 °F 71.1 °F 59% 29.94 in 10.0 mi SSW 11.5 mph - N/A   Scattered Clouds
3:53 PM 88.0 °F 92.9 °F 70.0 °F 55% 29.92 in 10.0 mi WSW 5.8 mph - N/A   Scattered Clouds
4:53 PM 89.1 °F 96.0 °F 72.0 °F 57% 29.91 in 10.0 mi SSW 12.7 mph - N/A   Mostly Cloudy
5:46 PM 80.6 °F 83.9 °F 69.8 °F 70% 29.94 in 10.0 mi SW 21.9 mph 41.4 mph 0.00 in Rain , Thunderstorm Light Thunderstorms and Rain
5:53 PM 79.0 °F - 70.0 °F 74% 29.92 in 4.0 mi SW 21.9 mph 27.6 mph 0.00 in Rain , Thunderstorm Light Thunderstorms and Rain
5:55 PM 78.8 °F - 71.6 °F 78% 29.93 in 1.5 mi SW 16.1 mph 27.6 mph 0.02 in Rain , Thunderstorm Thunderstorms and Rain
6:01 PM 77.0 °F - 71.6 °F 83% 29.94 in 3.0 mi West 24.2 mph 32.2 mph 0.10 in Rain , Thunderstorm Light Thunderstorms and Rain
6:09 PM 75.2 °F - 71.6 °F 89% 29.96 in 4.0 mi WNW 12.7 mph 28.8 mph 0.22 in Rain , Thunderstorm Light Thunderstorms and Rain
6:46 PM 73.4 °F - 71.6 °F 94% 29.93 in 10.0 mi West 8.1 mph - 0.26 in   Overcast
6:53 PM 73.9 °F - 72.0 °F 93% 29.92 in 10.0 mi West 8.1 mph - 0.26 in   Overcast
7:53 PM 73.9 °F - 71.1 °F 91% 29.90 in 9.0 mi SW 5.8 mph - 0.01 in Rain Light Rain
8:53 PM 75.0 °F - 72.0 °F 90% 29.91 in 9.0 mi South 5.8 mph - 0.01 in   Overcast
9:53 PM 73.9 °F - 71.1 °F 91% 29.92 in 10.0 mi South 9.2 mph - N/A   Overcast
10:53 PM 73.9 °F - 71.1 °F 91% 29.92 in 10.0 mi South 10.4 mph - N/A   Overcast
11:53 PM 73.9 °F - 71.1 °F 91% 29.90 in 10.0 mi South 8.1 mph - 0.01 in   Overcast